#timestamp,LO_Frequency,Hit,StdDev 
1536937215.6,286047003.5,N
1536937235.4,286047005.4,Y
1536937255.3,286046998.8,P
1536937275.1,286046999.1,N
1536937276.0,286046999.1,N
1536937295.8,286047000.1,N
1536937315.7,286047001.2,N
1536937335.5,286046998.1,N
1536937355.3,286046998.5,N
1536937375.2,286047000.0,N
1536937395.0,286047002.6,N
1536937395.9,286047002.6,N
1536937415.8,286047000.6,N
1536937435.6,286047004.4,N
1536937455.4,286047001.5,N
1536937475.3,286047000.4,N
1536937495.1,286047002.0,N
1536937515.8,286046999.9,N
1536937535.7,286047003.8,N
1536937555.5,286047001.9,N
1536937575.4,286047003.8,N
1536937595.2,286046999.9,N
1536937615.0,286047001.0,N
1536937615.9,286047001.0,N
1536937635.8,286046998.9,N
1536937655.6,286047002.0,N
1536937675.4,286047000.3,N
1536937695.3,286046999.7,N
1536937715.1,286047000.8,N
1536937735.9,286046996.8,N
1536937755.7,286046995.4,N
1536937775.5,286046995.3,N
1536937795.4,286046997.8,N
1536937815.2,286046997.9,N
1536937835.0,286046997.4,N
1536937835.9,286046997.4,N
1536937855.8,286046996.5,N
1536937905.7,286046997.0,E
1536937915.6,286046998.8,N
1536937935.4,286046998.4,P
1536937955.2,286047001.2,P
1536937975.1,286047000.4,N
1536937976.0,286047000.4,N
1536937995.8,286046998.5,N
1536938015.7,286047002.3,N
1536938035.5,286047002.5,N
1536938055.3,286047001.5,N
1536938075.2,286047001.6,N
1536938095.0,286047002.2,N
1536938095.9,286047002.2,N
1536938115.7,286047005.1,Y
1536938135.6,286047005.8,P
1536938155.4,286047005.6,N
1536938175.3,286047005.9,N
1536938195.1,286047003.4,N
1536938196.0,286047003.4,N
1536938215.8,286047002.0,N
1536938235.7,286047000.4,N
1536938255.5,286047000.3,N
1536938275.3,286047001.1,N
1536938295.2,286046998.7,N
1536938315.0,286046999.4,N
1536938315.9,286046999.4,N
1536938335.8,286046998.1,N
1536938355.6,286046998.4,N
1536938375.4,286046999.6,N
1536938395.3,286046999.6,N
1536938415.1,286046999.3,N
1536938435.8,286046999.1,N
1536938455.7,286046998.1,N
1536938475.5,286047000.7,N
1536938495.4,286046998.6,N
1536938515.2,286046999.0,N
1536938535.0,286046997.3,N
1536938535.9,286046997.3,N
1536938555.8,286046997.5,N
1536938575.6,286046997.2,N
1536938595.4,286046997.4,N
1536938615.3,286046997.8,N
1536938635.1,286046998.0,N
1536938655.9,286046996.3,N
1536938675.7,286046993.7,N
1536938695.5,286046993.7,N
1536938715.4,286046996.2,N
1536938735.2,286046994.0,N
1536938755.0,286046995.9,N
1536938755.9,286046995.9,N
1536938775.8,286046995.7,N
1536938795.6,286046995.5,N
1536938815.5,286046993.5,Y
1536938835.3,286046995.3,P
1536938855.1,286046996.8,N
1536938875.9,286046997.0,P
1536938895.7,286046997.7,N
1536938915.5,286046999.2,N
1536938935.4,286046995.8,Y
1536938955.2,286046999.2,P
1536938975.1,286046998.6,N
1536938976.0,286046998.6,N
1536938995.8,286046998.7,N
1536939015.6,286046999.2,N
1536939035.5,286046997.1,Y
1536939055.3,286046998.9,P
1536939075.2,286047001.1,P
1536939095.9,286046998.2,N
1536939115.7,286046998.6,N
1536939135.6,286047000.9,N
1536939155.4,286046998.8,N
1536939175.2,286047001.2,N
1536939195.1,286046999.9,N
1536939196.0,286046999.9,N
1536939215.8,286046998.5,N
1536939235.7,286046998.8,N
1536939255.5,286046999.9,N
1536939275.3,286047002.6,N
1536939295.2,286047001.6,N
1536939315.9,286047000.2,N
1536939335.7,286046999.6,N
1536939355.6,286046998.7,N
1536939375.4,286046998.6,N
1536939395.2,286046999.5,N
1536939415.1,286046999.1,N
1536939416.0,286046999.1,N
1536939435.8,286046998.6,N
1536939455.7,286046998.4,N
1536939475.5,286046996.8,N
1536939495.3,286046995.6,Y
1536939515.2,286046995.8,P
1536939535.0,286046997.8,N
1536939535.9,286046997.8,N
1536939555.8,286046997.3,N
1536939575.6,286046999.3,N
1536939595.4,286046999.2,N
1536939615.3,286046998.1,N
1536939635.1,286046996.5,Y
1536939655.8,286047001.1,P
1536939675.7,286046998.1,N
1536939695.5,286047001.2,N
1536939715.4,286046998.4,N
1536939735.2,286046999.0,N
1536939755.0,286047000.7,N
1536939755.9,286047000.7,N
1536939775.8,286047005.0,Y
1536939795.6,286047006.6,P
1536939815.5,286047004.5,N
1536939835.3,286047005.9,N
1536939855.1,286047003.4,N
1536939875.9,286047005.2,N
1536939895.7,286047003.7,N
1536939915.5,286047003.4,N
1536939935.4,286047003.0,N
1536939955.2,286047005.2,N
1536939975.1,286047005.2,N
1536939976.0,286047005.2,N
1536939995.8,286047001.3,N
1536940015.6,286047002.8,N
1536940035.5,286047000.8,N
1536940055.3,286047000.8,N
1536940105.2,286047001.6,E
1536940115.1,286047001.2,N
1536940116.0,286047001.2,P
1536940135.8,286047000.8,P
1536940155.7,286047002.3,Y
1536940175.5,286047002.6,P
1536940195.3,286047001.4,N
1536940215.2,286047011.9,P
1536940235.0,286046999.7,N
1536940235.9,286046999.7,N
1536940255.8,286047001.0,N
1536940275.6,286047001.2,N
1536940295.4,286047000.1,N
1536940315.3,286047001.1,N
1536940335.1,286047001.1,N
1536940355.8,286047000.8,N
1536940375.7,286046999.2,N
1536940395.5,286046999.6,N
1536940415.4,286046997.9,N
1536940435.2,286046997.6,N
1536940455.0,286046999.1,N
1536940455.9,286046999.1,N
1536940475.8,286046997.2,N
1536940495.6,286046997.3,N
1536940515.4,286047000.7,N
1536940535.3,286046998.4,N
1536940555.1,286047001.1,N
1536940575.9,286046999.3,N
1536940595.7,286046998.6,N
1536940615.5,286046998.2,N
1536940635.4,286047002.8,N
1536940655.2,286047002.0,N
1536940675.0,286047002.7,N
1536940675.9,286047002.7,N
1536940695.8,286046998.5,N
1536940715.6,286047000.5,N
1536940735.5,286046998.7,N
1536940755.3,286046999.4,N
1536940775.1,286047000.7,N
1536940795.9,286046998.1,N
